{"data":{"norad_id":68973,"epoch":"2026-05-25T04:00:03.998880Z","epoch_age_seconds":54406,"freshness":"FRESH","line1":"1 68973U 26099Y   26145.16671295 -.00003936  00000+0 -62703-4 0  9998","line2":"2 68973  53.1587 270.8307 0001057 111.2230 166.7957 15.49325810  4962","mean_motion":15.4932581,"eccentricity":0.0001057,"inclination_deg":53.1587,"raan_deg":270.8307,"arg_perigee_deg":111.223,"mean_anomaly_deg":166.7957,"bstar":-6.2703e-5,"rev_number":496,"period_min":92.943652697556,"perigee_km":417.9786932485,"apogee_km":419.41554398117,"semimajor_km":6796.8341186148,"source":"CELESTRAK","updated_at":"2026-05-25T13:38:22.077076Z"}}